Location: Berlin
(38.3226°N, 75.2177°W)
Time: 01:54:07
(UTC+00:00)

Cosmos 1302 Rocket - Visible Passes

Search period start: 27 February 2021 00:00
Search period end: 09 March 2021 00:00
Orbit: 757 x 776 km, 74.0° (Epoch: 26 February)

Date Brightness Start Highest point End Pass type
(mag) Time Alt. Az. Time Alt. Az. Time Alt. Az.
27 Feb 5.4 00:34:23 10° SW 00:39:11 38° WNW 00:44:01 10° N visible
27 Feb 5.5 09:21:29 10° N 09:26:20 36° ENE 09:31:09 10° SE visible
27 Feb 5.0 11:03:53 10° NW 11:08:07 25° W 11:12:20 10° SSW visible
27 Feb 4.4 23:56:23 10° SSW 00:01:31 67° WNW 00:06:43 10° NNE visible
28 Feb 6.3 08:44:31 10° N 08:48:32 22° ENE 08:52:32 10° ESE visible
28 Feb 4.3 10:25:46 10° NNW 10:30:45 44° WSW 10:35:43 10° S visible
28 Feb 4.0 23:18:50 10° S 23:23:58 70° ESE 23:29:09 10° NNE visible
01 Mar 6.9 01:03:47 10° W 01:06:32 14° WNW 01:09:19 10° NNW visible
01 Mar 6.9 08:08:15 10° NNE 08:10:37 13° NE 08:12:59 10° E visible
01 Mar 3.9 09:48:00 10° NNW 09:53:17 80° WSW 09:58:32 10° SSE visible
02 Mar 6.3 00:24:29 10° WSW 00:28:38 24° WNW 00:32:50 10° N visible
02 Mar 4.5 09:10:30 10° N 09:15:42 59° ENE 09:20:54 10° SSE visible
02 Mar 5.5 10:54:14 10° WNW 10:57:09 15° W 11:00:03 10° SW visible
02 Mar 5.4 23:46:01 10° SW 23:50:52 40° WNW 23:55:47 10° N visible
03 Mar 5.5 08:33:15 10° N 08:38:01 34° ENE 08:42:46 10° SE visible
03 Mar 4.9 10:15:30 10° NW 10:19:52 27° W 10:24:13 10° SSW visible
04 Mar 6.5 08:02:15 17° E 08:02:15 17° E 08:04:04 10° ESE visible
04 Mar 4.2 09:42:45 47° WSW 09:42:45 47° WSW 09:47:31 10° S visible
05 Mar 6.8 00:15:11 10° W 00:18:12 15° WNW 00:21:13 10° NNW visible
05 Mar 6.0 09:09:06 17° SSE 09:09:06 17° SSE 09:10:16 10° SSE visible
05 Mar 6.3 23:36:02 10° WSW 23:40:19 26° WNW 23:44:38 10° N visible
08 Mar 6.7 23:26:36 10° W 23:29:51 16° WNW 23:33:06 10° NNW visible
